Regional Weather Roundup
Issued by NWS

Home | Current Version | Previous Version | Text Only | Print | Product List | Glossary On
Versions: 1 2 3 4 5 6 7 8 9 10 11 12 13 14 15 16 17 18 19 20 21 22 23 24 25 26 27 28 29 30 31 32 33 34 35 36 37 38 39 40 41 42 43 44 45 46 47 48 49 50
000
ASUS45 KREV 291010
RWRNV
NEVADA REGIONAL WEATHER ROUNDUP
NATIONAL WEATHER SERVICE RENO NV
300 AM PDT MON MAY 29 2017

NOTE: "FAIR" INDICATES FEW OR NO CLOUDS BELOW 12,000 FEET WITH NO
SIGNIFICANT WEATHER AND/OR OBSTRUCTIONS TO VISIBILITY.

NVZ001-003-004-291100-
WESTERN NEVADA

CITY           SKY/WX    TMP DP  RH WIND       PRES   REMARKS
RENO           CLEAR     62  40  44 W5        30.11S
CARSON CITY    FAIR      54  37  54 CALM      30.14S
MINDEN         FAIR      41  37  87 E6        30.14S
FALLON         CLEAR     54  29  38 SW3       30.05F
LOVELOCK       CLEAR     51  31  46 E7        30.06S
HAWTHORNE      CLEAR     59  27  29 W7        30.06S
$$

NVZ002-CAZ072-073-291100-
NORTHERN AND CENTRAL SIERRA

CITY           SKY/WX    TMP DP  RH WIND       PRES   REMARKS
S. LAKE TAHOE  CLEAR     42  37  82 S3        30.21F
TRUCKEE        CLEAR     37  36  93 CALM      30.22S
SQUAW VLY 8000   N/A     45  32  61 N5          N/A
SUSANVILLE     CLEAR     52  37  58 CALM      30.10S
MAMMOTH LAKES  FAIR      45  29  55 CALM      30.25S
BRIDGEPORT     FAIR      40  29  64 CALM      30.23F
$$

NVZ030-031-036-291100-
NORTHERN NEVADA

CITY           SKY/WX    TMP DP  RH WIND       PRES   REMARKS
ELKO           CLEAR     47  37  68 CALM      30.18S
WINNEMUCCA     CLEAR     54  33  45 E9        30.11S
$$

NVZ035-037-291100-
CENTRAL NEVADA

CITY           SKY/WX    TMP DP  RH WIND       PRES   REMARKS
ELY            CLEAR     38  24  57 S12       30.24S
$$

NVZ013-014-291100-
SOUTH CENTRAL NEVADA

CITY           SKY/WX    TMP DP  RH WIND       PRES   REMARKS
TONOPAH        CLEAR     57  22  25 N12       30.13S
$$

NVZ017-020-022-291100-
SOUTHERN NEVADA

CITY           SKY/WX    TMP DP  RH WIND       PRES   REMARKS
LAS VEGAS      CLEAR     74  16  11 S6        29.88S
N. LAS VEGAS   CLEAR     76  21  12 CALM      29.89S
NELLIS AFB     CLEAR     75  17  11 CALM      29.88S
HENDERSON      CLEAR     69  18  14 S6        29.93R
MERCURY        CLEAR     64  13  13 E6        29.97S
$$



USA.gov is the U.S. government's official web portal to all federal, state and local government web resources and services.